| time (UTC) | temp C | wind direction | speed KPH | gust KPH | rain 1hr cm | rain 24hr cm | rain mn cm | humidity % | barometer mb |
| 20260507060328 | 10 | 45 | 4.8 | 8.0 | 0.00 | 0.00 | 0.00 | 91 | 1015.6 |
| 20260507055126 | 10 | 45 | 8.0 | 9.7 | 0.00 | 0.00 | 0.00 | 91 | 1015.6 |
| 20260507053925 | 10 | 2 | 3.2 | 8.0 | 0.00 | 0.00 | 0.00 | 92 | 1012.2 |
| 20260507052724 | 10 | 37 | 3.2 | 6.4 | 0.00 | 0.00 | 0.00 | 92 | 1012.2 |
| 20260507051523 | 10 | 23 | 1.6 | 4.8 | 0.00 | 0.00 | 0.00 | 91 | 1012.2 |
| 20260507050322 | 10 | 23 | 1.6 | 4.8 | 0.00 | 0.00 | 0.00 | 91 | 1012.2 |
| 20260507045121 | 10 | 27 | 1.6 | 4.8 | 0.00 | 0.00 | 0.00 | 91 | 1012.2 |
| 20260507043920 | 10 | 33 | 1.6 | 3.2 | 0.00 | 0.00 | 0.00 | 91 | 1012.2 |
| 20260507042718 | 10 | 39 | 3.2 | 8.0 | 0.00 | 0.00 | 0.00 | 90 | 1012.2 |
| 20260507041517 | 10 | 23 | 3.2 | 4.8 | 0.00 | 0.00 | 0.00 | 90 | 1012.2 |
| 20260507040336 | 10 | 33 | 3.2 | 4.8 | 0.00 | 0.00 | 0.00 | 90 | 1012.2 |
| 20260507035235 | 10 | 24 | 1.6 | 4.8 | 0.00 | 0.00 | 0.00 | 90 | 1012.2 |
| 20260507034014 | 10 | 4 | 3.2 | 4.8 | 0.00 | 0.00 | 0.00 | 89 | 1012.2 |
| 20260507032813 | 10 | 12 | 3.2 | 8.0 | 0.00 | 0.00 | 0.00 | 89 | 1012.2 |
| 20260507031612 | 10 | 39 | 4.8 | 8.0 | 0.00 | 0.00 | 0.00 | 88 | 1012.2 |
| 20260507030411 | 10 | 27 | 1.6 | 4.8 | 0.00 | 0.00 | 0.00 | 88 | 1012.2 |
| 20260507025210 | 10 | 5 | 4.8 | 11.3 | 0.00 | 0.00 | 0.00 | 87 | 1012.2 |
| 20260507024009 | 10 | 0 | 8.0 | 9.7 | 0.00 | 0.00 | 0.00 | 87 | 1012.2 |
| 20260507022808 | 10 | 3 | 3.2 | 6.4 | 0.00 | 0.00 | 0.00 | 86 | 1012.2 |
| 20260507021606 | 11 | 23 | 3.2 | 6.4 | 0.00 | 0.00 | 0.00 | 86 | 1012.2 |
| 20260507020426 | 11 | 0 | 3.2 | 3.2 | 0.00 | 0.00 | 0.00 | 85 | 1012.2 |
| 20260507015204 | 11 | 17 | 4.8 | 8.0 | 0.00 | 0.00 | 0.00 | 85 | 1012.2 |
| 20260507014003 | 11 | 11 | 1.6 | 4.8 | 0.00 | 0.00 | 0.00 | 85 | 1012.2 |
| 20260507012802 | 11 | 0 | 3.2 | 4.8 | 0.00 | 0.00 | 0.00 | 85 | 1012.2 |
| 20260507011601 | 11 | 23 | 1.6 | 4.8 | 0.00 | 0.00 | 0.00 | 84 | 1012.2 |
| 20260507010400 | 11 | 23 | 3.2 | 4.8 | 0.00 | 0.00 | 0.00 | 84 | 1012.2 |
| 20260507005158 | 11 | 351 | 4.8 | 8.0 | 0.00 | 0.00 | 0.00 | 84 | 1012.2 |
| 20260507003957 | 11 | 0 | 4.8 | 6.4 | 0.00 | 0.00 | 0.00 | 84 | 1012.2 |
| 20260507002756 | 11 | 23 | 0.0 | 1.6 | 0.00 | 0.00 | 0.00 | 84 | 1012.2 |
| 20260507001555 | 11 | 8 | 1.6 | 4.8 | 0.00 | 0.00 | 0.00 | 84 | 1012.2 |
| 20260507000354 | 11 | 2 | 1.6 | 4.8 | 0.00 | 0.00 | 0.00 | 83 | 1012.2 |
| 20260506235153 | 11 | 23 | 0.0 | 1.6 | 0.00 | 0.00 | 0.00 | 83 | 1012.2 |
| 20260506233952 | 11 | 0 | 1.6 | 4.8 | 0.00 | 0.00 | 0.00 | 83 | 1012.2 |
| 20260506232751 | 11 | 42 | 0.0 | 1.6 | 0.00 | 0.00 | 0.00 | 83 | 1012.2 |
| 20260506231549 | 11 | 25 | 0.0 | 1.6 | 0.00 | 0.00 | 0.00 | 82 | 1012.2 |
| 20260506230347 | 11 | 23 | 0.0 | 1.6 | 0.00 | 0.00 | 0.00 | 82 | 1012.2 |
| 20260506225206 | 11 | 7 | 1.6 | 1.6 | 0.00 | 0.00 | 0.00 | 81 | 1012.2 |
| 20260506223945 | 11 | 41 | 1.6 | 1.6 | 0.00 | 0.00 | 0.00 | 81 | 1012.2 |
| 20260506222744 | 11 | 45 | 1.6 | 3.2 | 0.00 | 0.00 | 0.00 | 80 | 1012.2 |
| 20260506221543 | 11 | 11 | 0.0 | 3.2 | 0.00 | 0.00 | 0.00 | 80 | 1012.2 |
| 20260506220342 | 11 | 23 | 1.6 | 3.2 | 0.00 | 0.00 | 0.00 | 80 | 1012.2 |
| 20260506215150 | 11 | 23 | 1.6 | 1.6 | 0.00 | 0.00 | 0.00 | 79 | 1012.2 |
| 20260506213949 | 11 | 45 | 0.0 | 1.6 | 0.00 | 0.00 | 0.00 | 79 | 1012.2 |
| 20260506212748 | 11 | 45 | 1.6 | 3.2 | 0.00 | 0.00 | 0.00 | 79 | 1012.2 |
| 20260506211548 | 11 | 34 | 1.6 | 3.2 | 0.00 | 0.00 | 0.00 | 79 | 1012.2 |
| 20260506210346 | 11 | 45 | 3.2 | 4.8 | 0.00 | 0.00 | 0.00 | 78 | 1012.2 |
| 20260506205146 | 11 | 45 | 3.2 | 4.8 | 0.00 | 0.00 | 0.00 | 78 | 1012.2 |
| 20260506203944 | 11 | 39 | 4.8 | 8.0 | 0.00 | 0.00 | 0.00 | 78 | 1012.2 |
| 20260506202743 | 11 | 25 | 1.6 | 4.8 | 0.00 | 0.00 | 0.00 | 78 | 1012.2 |
| 20260506201602 | 12 | 63 | 6.4 | 8.0 | 0.00 | 0.00 | 0.00 | 77 | 1012.2 |
| 20260506200401 | 12 | 33 | 8.0 | 9.7 | 0.00 | 0.00 | 0.00 | 77 | 1012.2 |
| 20260506195200 | 12 | 55 | 6.4 | 9.7 | 0.00 | 0.00 | 0.00 | 77 | 1012.2 |
| 20260506193939 | 12 | 45 | 8.0 | 12.9 | 0.00 | 0.00 | 0.00 | 76 | 1012.2 |
| 20260506192737 | 12 | 45 | 4.8 | 8.0 | 0.00 | 0.00 | 0.00 | 76 | 1008.8 |
| 20260506191537 | 12 | 45 | 6.4 | 11.3 | 0.00 | 0.00 | 0.00 | 75 | 1008.8 |
| 20260506190335 | 12 | 45 | 9.7 | 14.5 | 0.00 | 0.00 | 0.00 | 75 | 1008.8 |
| 20260506185135 | 12 | 35 | 4.8 | 6.4 | 0.00 | 0.00 | 0.00 | 75 | 1008.8 |
| 20260506183933 | 12 | 45 | 4.8 | 9.7 | 0.00 | 0.00 | 0.00 | 75 | 1008.8 |
| 20260506182733 | 12 | 29 | 8.0 | 11.3 | 0.00 | 0.00 | 0.00 | 74 | 1008.8 |
| 20260506181552 | 12 | 30 | 11.3 | 16.1 | 0.00 | 0.00 | 0.00 | 73 | 1008.8 |
| 20260506180331 | 12 | 45 | 11.3 | 17.7 | 0.00 | 0.00 | 0.00 | 72 | 1008.8 |
| 20260506175129 | 13 | 45 | 14.5 | 24.1 | 0.00 | 0.00 | 0.00 | 71 | 1008.8 |
| 20260506173948 | 13 | 38 | 8.0 | 12.9 | 0.00 | 0.00 | 0.00 | 70 | 1008.8 |
| 20260506172727 | 13 | 45 | 14.5 | 20.9 | 0.00 | 0.00 | 0.00 | 69 | 1008.8 |
| 20260506171525 | 13 | 41 | 14.5 | 20.9 | 0.00 | 0.00 | 0.00 | 68 | 1008.8 |
| 20260506170325 | 13 | 45 | 20.9 | 30.6 | 0.00 | 0.00 | 0.00 | 67 | 1008.8 |
| 20260506165123 | 13 | 45 | 12.9 | 17.7 | 0.00 | 0.00 | 0.00 | 65 | 1008.8 |
| 20260506163922 | 13 | 51 | 8.0 | 17.7 | 0.00 | 0.00 | 0.00 | 65 | 1008.8 |
| 20260506162721 | 14 | 32 | 9.7 | 17.7 | 0.00 | 0.00 | 0.00 | 64 | 1008.8 |
| 20260506161519 | 14 | 54 | 19.3 | 30.6 | 0.00 | 0.00 | 0.00 | 64 | 1008.8 |
| 20260506160318 | 15 | 45 | 14.5 | 20.9 | 0.00 | 0.00 | 0.00 | 64 | 1008.8 |
| 20260506155117 | 15 | 37 | 14.5 | 24.1 | 0.00 | 0.00 | 0.00 | 66 | 1008.8 |
| 20260506153916 | 15 | 46 | 11.3 | 16.1 | 0.00 | 0.00 | 0.00 | 66 | 1008.8 |
| 20260506152815 | 15 | 10 | 6.4 | 14.5 | 0.00 | 0.00 | 0.00 | 66 | 1008.8 |
| 20260506151613 | 15 | 27 | 9.7 | 17.7 | 0.00 | 0.00 | 0.00 | 66 | 1008.8 |
| 20260506150412 | 15 | 45 | 8.0 | 11.3 | 0.00 | 0.00 | 0.00 | 65 | 1008.8 |
| 20260506145211 | 16 | 45 | 14.5 | 17.7 | 0.00 | 0.00 | 0.00 | 64 | 1008.8 |
| 20260506144010 | 16 | 18 | 9.7 | 14.5 | 0.00 | 0.00 | 0.00 | 64 | 1008.8 |
| 20260506142810 | 17 | 19 | 6.4 | 12.9 | 0.00 | 0.00 | 0.00 | 66 | 1006.3 |
| 20260506141606 | 17 | 45 | 6.4 | 12.9 | 0.00 | 0.00 | 0.00 | 67 | 1008.8 |
| 20260506140406 | 16 | 5 | 9.7 | 17.7 | 0.00 | 0.00 | 0.00 | 68 | 1008.8 |
| 20260506135204 | 16 | 26 | 9.7 | 16.1 | 0.00 | 0.00 | 0.00 | 68 | 1008.8 |
| 20260506134003 | 16 | 30 | 9.7 | 22.5 | 0.00 | 0.00 | 0.00 | 66 | 1008.8 |
| 20260506132801 | 16 | 20 | 8.0 | 14.5 | 0.00 | 0.00 | 0.00 | 66 | 1008.8 |
| 20260506131620 | 17 | 34 | 12.9 | 20.9 | 0.00 | 0.00 | 0.00 | 64 | 1008.8 |
| 20260506130359 | 17 | 13 | 8.0 | 11.3 | 0.00 | 0.00 | 0.00 | 64 | 1008.8 |
| 20260506125158 | 17 | 0 | 11.3 | 16.1 | 0.00 | 0.00 | 0.00 | 66 | 1008.8 |
| 20260506123956 | 16 | 27 | 11.3 | 17.7 | 0.00 | 0.00 | 0.00 | 65 | 1008.8 |
| 20260506122815 | 16 | 41 | 14.5 | 24.1 | 0.00 | 0.00 | 0.00 | 66 | 1008.8 |
| 20260506121614 | 16 | 0 | 12.9 | 19.3 | 0.00 | 0.00 | 0.00 | 69 | 1008.8 |
| 20260506120353 | 16 | 17 | 11.3 | 16.1 | 0.00 | 0.00 | 0.00 | 70 | 1008.8 |
| 20260506115151 | 16 | 40 | 14.5 | 20.9 | 0.00 | 0.00 | 0.00 | 70 | 1008.8 |
| 20260506113950 | 15 | 17 | 11.3 | 20.9 | 0.00 | 0.00 | 0.00 | 74 | 1008.8 |
| 20260506112749 | 16 | 19 | 9.7 | 17.7 | 0.00 | 0.00 | 0.00 | 75 | 1008.8 |
| 20260506111547 | 15 | 12 | 8.0 | 11.3 | 0.00 | 0.00 | 0.00 | 75 | 1008.8 |
| 20260506110347 | 16 | 0 | 14.5 | 20.9 | 0.00 | 0.00 | 0.00 | 76 | 1008.8 |
| 20260506105145 | 15 | 45 | 9.7 | 17.7 | 0.00 | 0.00 | 0.00 | 76 | 1008.8 |
| 20260506103944 | 15 | 5 | 16.1 | 22.5 | 0.00 | 0.00 | 0.00 | 77 | 1008.8 |
| 20260506102743 | 15 | 0 | 11.3 | 14.5 | 0.00 | 0.00 | 0.00 | 79 | 1008.8 |
| 20260506101542 | 15 | 45 | 8.0 | 11.3 | 0.00 | 0.00 | 0.00 | 78 | 1008.8 |
| 20260506100341 | 15 | 23 | 9.7 | 14.5 | 0.00 | 0.00 | 0.00 | 80 | 1008.8 |
| 20260506095140 | 15 | 23 | 11.3 | 14.5 | 0.00 | 0.00 | 0.00 | 83 | 1008.8 |
| 20260506093939 | 15 | 344 | 12.9 | 16.1 | 0.00 | 0.00 | 0.00 | 88 | 1008.8 |
| 20260506092737 | 14 | 9 | 14.5 | 24.1 | 0.00 | 0.00 | 0.00 | 91 | 1008.0 |
| 20260506091536 | 13 | 45 | 6.4 | 8.0 | 0.00 | 0.00 | 0.00 | 95 | 1008.8 |
| 20260506090335 | 12 | 11 | 6.4 | 11.3 | 0.00 | 0.00 | 0.00 | 98 | 1008.0 |
| 20260506085134 | 12 | 0 | 6.4 | 14.5 | 0.00 | 0.00 | 0.00 | 99 | 1008.8 |
| 20260506083933 | 12 | 6 | 1.6 | 4.8 | 0.00 | 0.00 | 0.00 | 100 | 1008.0 |
| 20260506082732 | 11 | 348 | 4.8 | 9.7 | 0.00 | 0.00 | 0.00 | 100 | 1008.8 |
| 20260506081530 | 11 | 15 | 4.8 | 11.3 | 0.00 | 0.00 | 0.00 | 100 | 1008.8 |
| 20260506080349 | 11 | 0 | 12.9 | 17.7 | 0.00 | 0.00 | 0.00 | 100 | 1008.8 |
| 20260506072726 | 10 | 341 | 6.4 | 12.9 | 0.00 | 0.00 | 0.00 | 100 | 1008.8 |
| 20260506071525 | 10 | 0 | 8.0 | 11.3 | 0.00 | 0.00 | 0.00 | 100 | 1008.8 |
| 20260506070324 | 10 | 348 | 8.0 | 12.9 | 0.00 | 0.00 | 0.00 | 100 | 1008.8 |
| 20260506061540 | 10 | 4 | 4.8 | 9.7 | 0.00 | 0.00 | 0.00 | 100 | 1005.5 |